Hourly Data Report for September 08, 2017

All times are specified in Local Standard Time (LST). Add 1 hour to adjust for Daylight Saving Time where and when it is observed.

ST. JOHN'S INTL A
NEWFOUNDLAND

47°37'07.000" N
52°45'09.000" W
140.50 m
8403505
71801
YYT

Download Data

Hourly Data (September 2017)
Hourly Data Report for September 8, 2017
Temp Definition
°C
Dew Point Temp Definition
°C
Rel Hum Definition
%
Wind Dir Definition
10's deg

Wind Spd Definition
km/h
Visibility Definition
km
Stn Press Definition
kPa
Hmdx Definition


Wind Chill Definition


Weather Definition


TIME
00:30 Legend Double Dagger 21.7 20.0 90 22 33 24.1 100.39 29   LegendNANA
01:30 Legend Double Dagger 21.8 20.1 90 22 29 24.1 100.34 29   LegendNANA
02:30 Legend Double Dagger 21.6 20.1 91 22 32 24.1 100.25 29   Cloudy
03:30 Legend Double Dagger 21.7 20.2 91 22 37 24.1 100.19 29   LegendNANA
04:30 Legend Double Dagger 21.1 20.2 95 22 35 12.9 100.17 29   Moderate Rain
05:30 Legend Double Dagger 21.8 20.8 94 22 30 24.1 100.11 30   Mostly Cloudy
06:30 Legend Double Dagger 21.7 21.1 96 23 32 19.3 100.12 30   Rain
07:30 Legend Double Dagger 21.6 20.8 95 22 26 24.1 100.10 30   Rain
08:30 Legend Double Dagger 21.8 20.9 95 22 31 24.1 100.10 30   Rain
09:30 Legend Double Dagger 22.9 21.6 92 23 36 24.1 100.08 32   Rain
10:30 Legend Double Dagger 23.7 21.7 88 23 45 24.1 100.03 33   Rain
11:30 Legend Double Dagger 23.8 21.5 87 23 40 24.1 100.00 33   Rain
12:30 Legend Double Dagger 23.7 21.4 87 24 51 24.1 100.00 32   Rain
13:30 Legend Double Dagger 23.0 21.3 90 23 39 24.1 100.00 32   LegendNANA
14:30 Legend Double Dagger 22.5 20.6 89 24 37 24.1 99.94 31   Cloudy
15:30 Legend Double Dagger 21.6 19.5 88 25 39 24.1 99.96 29   LegendNANA
16:30 Legend Double Dagger 20.6 18.8 89 24 34 24.1 100.02 27   LegendNANA
17:30 Legend Double Dagger 19.2 18.0 93 25 29 24.1 100.05     Cloudy
18:30 Legend Double Dagger 18.0 17.2 95 26 27 19.3 100.08     LegendNANA
19:30 Legend Double Dagger 17.6 16.6 94 25 27 24.1 100.15     LegendNANA
20:30 Legend Double Dagger 17.2 15.7 91 26 31 24.1 100.25     Cloudy
21:30 Legend Double Dagger 16.7 15.2 91 26 26 24.1 100.27     LegendNANA
22:30 Legend Double Dagger 16.0 15.0 94 26 24 24.1 100.32     LegendNANA
23:30 Legend Double Dagger 15.9 14.9 94 26 26 24.1 100.38     Cloudy

Notes on Data Quality.

Legend

  • E = Estimated
  • M = Missing
  • NA = Not Available
  • ‡ = Partner data that is not subject to review by the National Climate Archives
Date modified: